Precipitable_Water
1.68 1.70 1.73 1.69 1.71 1.73 1.75 1.77 1.78 1.76 1.77 1.69 1.61 1.54 1.53 1.56 1.58 1.53 1.55 1.50 1.41 1.38 1.39 1.40 1.39 1.38 1.41 1.43 1.41 1.37 1.31 1.27 1.22 1.15 1.11 1.19 1.24 1.28 1.31 1.32 1.33 1.34 1.37 1.39 1.39 1.40 1.40 1.40 1.41 1.42 1.42 1.39 1.35 1.31 1.28 1.28 1.30 1.29 1.34 1.37 1.40 1.43 1.45 1.49 1.52 1.52 1.53 1.53 1.51 1.51 1.48 1.46 1.45 1.44 1.42 1.40 1.38 1.36 1.34 1.32 1.27 1.25 1.25 1.24 1.28
1.66 1.69 1.73 1.74 1.76 1.79 1.79 1.82 1.82 1.80 1.78 1.72 1.71 1.68 1.59 1.55 1.53 1.55 1.55 1.55 1.49 1.43 1.42 1.36 1.38 1.39 1.39 1.37 1.40 1.40 1.39 1.35 1.32 1.22 1.09 1.11 1.16 1.20 1.24 1.26 1.27 1.31 1.35 1.37 1.38 1.37 1.38 1.37 1.38 1.38 1.37 1.35 1.30 1.24 1.27 1.29 1.27 1.30 1.34 1.37 1.41 1.44 1.47 1.50 1.52 1.52 1.52 1.53 1.50 1.50 1.51 1.49 1.47 1.45 1.44 1.42 1.40 1.38 1.35 1.32 1.29 1.24 1.25 1.27 1.27
1.66 1.68 1.73 1.74 1.76 1.81 1.79 1.78 1.76 1.77 1.78 1.74 1.77 1.73 1.70 1.64 1.63 1.62 1.63 1.66 1.59 1.59 1.51 1.40 1.40 1.43 1.44 1.44 1.41 1.41 1.41 1.43 1.41 1.33 1.20 1.13 1.12 1.15 1.19 1.22 1.25 1.28 1.31 1.32 1.33 1.35 1.34 1.34 1.35 1.33 1.30 1.28 1.25 1.25 1.26 1.28 1.30 1.30 1.33 1.37 1.39 1.41 1.45 1.49 1.51 1.50 1.50 1.51 1.49 1.49 1.50 1.49 1.48 1.48 1.46 1.45 1.44 1.41 1.37 1.35 1.31 1.28 1.27 1.28 1.29
1.68 1.66 1.66 1.68 1.71 1.77 1.77 1.76 1.75 1.79 1.77 1.74 1.73 1.77 1.75 1.72 1.71 1.71 1.70 1.64 1.58 1.57 1.56 1.52 1.45 1.45 1.49 1.44 1.44 1.41 1.43 1.44 1.42 1.42 1.37 1.26 1.15 1.13 1.17 1.21 1.27 1.29 1.30 1.32 1.32 1.33 1.32 1.32 1.29 1.26 1.29 1.26 1.25 1.23 1.24 1.25 1.28 1.30 1.33 1.35 1.37 1.40 1.43 1.46 1.48 1.51 1.51 1.49 1.50 1.51 1.50 1.49 1.51 1.50 1.49 1.48 1.45 1.46 1.44 1.41 1.38 1.38 1.38 1.38 1.40
1.72 1.69 1.66 1.66 1.68 1.68 1.69 1.73 1.78 1.82 1.77 1.75 1.73 1.72 1.69 1.66 1.64 1.66 1.63 1.60 1.54 1.55 1.58 1.57 1.52 1.50 1.49 1.47 1.47 1.46 1.47 1.45 1.43 1.40 1.39 1.36 1.33 1.27 1.28 1.31 1.31 1.28 1.29 1.30 1.31 1.29 1.29 1.27 1.25 1.24 1.22 1.23 1.20 1.19 1.20 1.23 1.25 1.28 1.33 1.35 1.36 1.37 1.41 1.45 1.49 1.50 1.49 1.50 1.51 1.51 1.51 1.52 1.52 1.53 1.53 1.53 1.53 1.53 1.53 1.52 1.49 1.48 1.49 1.51 1.53
1.75 1.73 1.73 1.70 1.68 1.64 1.64 1.69 1.75 1.76 1.72 1.66 1.64 1.67 1.61 1.60 1.61 1.63 1.59 1.56 1.53 1.52 1.54 1.54 1.56 1.58 1.56 1.56 1.52 1.50 1.51 1.44 1.42 1.40 1.36 1.33 1.37 1.39 1.39 1.44 1.41 1.38 1.35 1.32 1.28 1.26 1.25 1.23 1.23 1.22 1.23 1.20 1.19 1.20 1.20 1.22 1.27 1.30 1.32 1.34 1.34 1.38 1.41 1.45 1.47 1.48 1.49 1.49 1.49 1.49 1.51 1.54 1.57 1.58 1.58 1.61 1.61 1.61 1.62 1.61 1.58 1.56 1.60 1.62 1.63
1.78 1.73 1.73 1.71 1.66 1.63 1.64 1.64 1.66 1.66 1.63 1.63 1.63 1.63 1.59 1.56 1.58 1.55 1.54 1.57 1.57 1.55 1.55 1.48 1.49 1.53 1.56 1.60 1.57 1.51 1.51 1.39 1.40 1.39 1.37 1.34 1.37 1.38 1.41 1.45 1.45 1.42 1.38 1.34 1.26 1.21 1.21 1.20 1.22 1.20 1.19 1.19 1.18 1.19 1.20 1.22 1.26 1.29 1.29 1.31 1.36 1.39 1.42 1.45 1.46 1.46 1.47 1.47 1.47 1.50 1.53 1.58 1.63 1.67 1.69 1.69 1.68 1.65 1.64 1.63 1.64 1.65 1.64 1.65 1.65
1.84 1.80 1.72 1.72 1.68 1.61 1.57 1.58 1.59 1.65 1.66 1.64 1.66 1.62 1.61 1.58 1.61 1.58 1.48 1.49 1.50 1.46 1.50 1.47 1.49 1.48 1.58 1.63 1.64 1.64 1.54 1.45 1.41 1.41 1.39 1.40 1.38 1.38 1.43 1.46 1.46 1.43 1.38 1.34 1.25 1.23 1.20 1.20 1.20 1.18 1.17 1.15 1.15 1.16 1.17 1.21 1.24 1.26 1.28 1.32 1.36 1.38 1.42 1.45 1.46 1.47 1.49 1.50 1.53 1.55 1.60 1.66 1.72 1.76 1.78 1.79 1.77 1.75 1.69 1.66 1.65 1.62 1.66 1.65 1.60
1.79 1.83 1.76 1.71 1.70 1.63 1.60 1.60 1.62 1.64 1.63 1.64 1.63 1.64 1.62 1.56 1.55 1.58 1.53 1.40 1.42 1.39 1.41 1.44 1.47 1.50 1.58 1.60 1.62 1.61 1.59 1.51 1.47 1.42 1.43 1.37 1.37 1.39 1.41 1.43 1.45 1.45 1.44 1.41 1.40 1.33 1.29 1.23 1.27 1.26 1.17 1.15 1.12 1.12 1.14 1.19 1.21 1.23 1.26 1.30 1.35 1.39 1.43 1.45 1.48 1.51 1.53 1.56 1.60 1.65 1.69 1.75 1.80 1.85 1.89 1.90 1.90 1.88 1.86 1.78 1.75 1.75 1.73 1.76 1.73
1.73 1.79 1.79 1.72 1.70 1.69 1.69 1.68 1.69 1.68 1.62 1.59 1.63 1.70 1.70 1.63 1.50 1.52 1.54 1.48 1.40 1.42 1.45 1.53 1.52 1.52 1.53 1.53 1.53 1.56 1.51 1.49 1.45 1.44 1.39 1.33 1.34 1.34 1.38 1.43 1.45 1.42 1.41 1.39 1.42 1.47 1.36 1.27 1.28 1.32 1.25 1.21 1.22 1.14 1.14 1.19 1.21 1.22 1.27 1.32 1.36 1.39 1.42 1.45 1.49 1.54 1.58 1.62 1.67 1.71 1.76 1.81 1.86 1.90 1.91 1.93 1.94 1.94 1.90 1.85 1.84 1.86 1.86 1.83 1.79
1.68 1.74 1.73 1.70 1.65 1.64 1.67 1.68 1.68 1.67 1.59 1.53 1.56 1.62 1.65 1.66 1.60 1.54 1.58 1.55 1.52 1.54 1.50 1.51 1.47 1.46 1.46 1.50 1.43 1.49 1.45 1.41 1.36 1.34 1.35 1.35 1.33 1.35 1.41 1.41 1.40 1.40 1.36 1.38 1.40 1.49 1.46 1.31 1.25 1.28 1.29 1.28 1.28 1.30 1.26 1.29 1.27 1.25 1.29 1.33 1.36 1.38 1.41 1.45 1.49 1.55 1.61 1.67 1.71 1.76 1.79 1.83 1.87 1.89 1.91 1.92 1.94 1.95 1.93 1.89 1.87 1.87 1.88 1.88 1.86
1.69 1.69 1.70 1.70 1.66 1.61 1.62 1.67 1.69 1.68 1.56 1.46 1.48 1.52 1.54 1.58 1.59 1.59 1.53 1.55 1.57 1.53 1.50 1.43 1.40 1.40 1.39 1.38 1.34 1.34 1.33 1.28 1.30 1.32 1.33 1.34 1.33 1.35 1.34 1.41 1.34 1.30 1.31 1.35 1.39 1.49 1.48 1.34 1.28 1.27 1.30 1.30 1.30 1.36 1.42 1.41 1.38 1.35 1.36 1.36 1.38 1.41 1.45 1.48 1.52 1.56 1.62 1.69 1.75 1.78 1.81 1.84 1.86 1.89 1.90 1.90 1.92 1.93 1.94 1.91 1.88 1.88 1.88 1.89 1.88
1.73 1.68 1.64 1.67 1.68 1.59 1.61 1.68 1.76 1.70 1.60 1.56 1.60 1.60 1.59 1.62 1.60 1.61 1.52 1.48 1.45 1.47 1.41 1.37 1.24 1.20 1.25 1.23 1.22 1.27 1.28 1.27 1.26 1.31 1.34 1.34 1.35 1.31 1.31 1.34 1.33 1.25 1.31 1.34 1.35 1.43 1.42 1.36 1.31 1.31 1.31 1.29 1.33 1.38 1.43 1.46 1.46 1.46 1.44 1.41 1.44 1.47 1.50 1.52 1.55 1.58 1.62 1.67 1.73 1.77 1.81 1.83 1.86 1.88 1.90 1.90 1.90 1.90 1.93 1.91 1.86 1.85 1.83 1.84 1.86
1.74 1.74 1.73 1.69 1.64 1.62 1.58 1.58 1.67 1.67 1.66 1.67 1.63 1.65 1.61 1.59 1.60 1.56 1.62 1.49 1.36 1.40 1.38 1.34 1.16 1.10 1.04 1.06 1.17 1.23 1.23 1.23 1.22 1.27 1.32 1.34 1.34 1.29 1.28 1.27 1.29 1.28 1.30 1.30 1.29 1.40 1.37 1.38 1.29 1.26 1.29 1.31 1.36 1.40 1.44 1.46 1.50 1.51 1.52 1.48 1.48 1.49 1.49 1.50 1.52 1.53 1.55 1.59 1.64 1.70 1.75 1.81 1.86 1.90 1.92 1.91 1.90 1.89 1.91 1.91 1.87 1.85 1.83 1.80 1.81
1.78 1.79 1.76 1.75 1.66 1.60 1.59 1.60 1.65 1.70 1.62 1.55 1.56 1.55 1.56 1.54 1.58 1.53 1.46 1.51 1.44 1.44 1.37 1.38 1.19 1.22 1.22 1.12 0.99 0.98 1.06 1.16 1.25 1.29 1.31 1.33 1.31 1.29 1.27 1.25 1.28 1.26 1.29 1.30 1.27 1.31 1.37 1.36 1.25 1.21 1.19 1.27 1.34 1.40 1.43 1.47 1.52 1.53 1.51 1.51 1.51 1.52 1.53 1.53 1.53 1.53 1.55 1.58 1.62 1.67 1.73 1.80 1.88 1.93 1.96 1.94 1.90 1.87 1.85 1.85 1.84 1.82 1.79 1.79 1.80
1.74 1.78 1.80 1.73 1.64 1.57 1.64 1.61 1.62 1.71 1.62 1.52 1.51 1.47 1.49 1.51 1.57 1.53 1.48 1.29 1.36 1.35 1.41 1.39 1.33 1.15 0.99 1.07 1.04 1.04 0.90 0.94 1.07 1.19 1.31 1.30 1.27 1.28 1.27 1.27 1.27 1.22 1.31 1.33 1.28 1.32 1.33 1.34 1.28 1.15 1.15 1.19 1.34 1.41 1.46 1.48 1.51 1.53 1.51 1.51 1.52 1.52 1.51 1.50 1.52 1.56 1.59 1.62 1.64 1.67 1.70 1.76 1.84 1.92 1.97 1.97 1.91 1.85 1.80 1.77 1.76 1.75 1.72 1.68 1.66
1.69 1.74 1.77 1.71 1.66 1.66 1.64 1.64 1.58 1.59 1.57 1.49 1.45 1.46 1.53 1.58 1.61 1.53 1.45 1.33 1.30 1.31 1.36 1.43 1.40 1.39 1.18 1.06 1.01 0.97 0.92 0.99 1.08 1.09 1.24 1.19 1.21 1.21 1.25 1.21 1.22 1.18 1.25 1.31 1.36 1.30 1.32 1.27 1.31 1.27 1.18 1.21 1.34 1.41 1.47 1.51 1.53 1.54 1.53 1.52 1.53 1.48 1.45 1.47 1.53 1.57 1.61 1.63 1.63 1.66 1.69 1.73 1.77 1.83 1.90 1.94 1.91 1.83 1.76 1.70 1.66 1.62 1.58 1.56 1.57
1.71 1.72 1.80 1.72 1.63 1.63 1.64 1.60 1.58 1.56 1.54 1.48 1.44 1.47 1.49 1.59 1.61 1.54 1.44 1.40 1.35 1.25 1.24 1.43 1.41 1.40 1.42 1.37 1.25 1.04 1.02 1.07 1.10 0.88 1.14 1.19 1.15 1.10 1.12 1.19 1.18 1.21 1.28 1.29 1.31 1.25 1.25 1.25 1.31 1.33 1.30 1.30 1.33 1.41 1.46 1.50 1.54 1.56 1.53 1.50 1.49 1.37 1.38 1.46 1.54 1.57 1.58 1.61 1.63 1.66 1.69 1.71 1.73 1.76 1.80 1.85 1.87 1.82 1.74 1.66 1.58 1.52 1.49 1.50 1.53
1.77 1.80 1.79 1.75 1.73 1.71 1.63 1.59 1.61 1.60 1.57 1.48 1.42 1.44 1.47 1.56 1.59 1.56 1.49 1.42 1.33 1.22 1.18 1.26 1.37 1.45 1.45 1.41 1.37 1.35 1.28 1.15 0.98 1.03 0.88 0.99 1.07 1.08 1.14 1.22 1.18 1.24 1.27 1.25 1.29 1.25 1.20 1.27 1.31 1.33 1.31 1.37 1.35 1.41 1.45 1.47 1.56 1.55 1.50 1.39 1.30 1.31 1.35 1.44 1.52 1.55 1.56 1.59 1.63 1.65 1.68 1.70 1.70 1.73 1.76 1.77 1.76 1.75 1.70 1.63 1.55 1.49 1.45 1.44 1.48
1.78 1.77 1.75 1.77 1.80 1.76 1.67 1.61 1.63 1.64 1.61 1.55 1.48 1.47 1.50 1.55 1.57 1.58 1.55 1.46 1.32 1.26 1.22 1.28 1.28 1.28 1.39 1.33 1.27 1.30 1.33 1.28 1.24 1.06 0.97 0.94 0.96 1.09 1.15 1.17 1.20 1.24 1.26 1.24 1.26 1.26 1.18 1.31 1.31 1.32 1.35 1.35 1.37 1.41 1.48 1.51 1.50 1.51 1.40 1.25 1.31 1.34 1.34 1.42 1.49 1.52 1.55 1.58 1.60 1.62 1.65 1.68 1.68 1.69 1.70 1.70 1.68 1.68 1.65 1.58 1.51 1.47 1.44 1.40 1.39
1.81 1.77 1.81 1.79 1.79 1.76 1.75 1.69 1.65 1.65 1.67 1.61 1.57 1.52 1.54 1.54 1.49 1.53 1.49 1.40 1.34 1.36 1.27 1.24 1.27 1.29 1.30 1.28 1.22 1.19 1.16 1.18 1.20 1.17 1.06 0.97 0.92 0.98 0.99 1.13 1.23 1.26 1.27 1.28 1.29 1.27 1.26 1.31 1.31 1.36 1.33 1.35 1.33 1.42 1.46 1.40 1.38 1.44 1.38 1.31 1.37 1.37 1.37 1.39 1.45 1.50 1.54 1.56 1.59 1.61 1.64 1.65 1.65 1.63 1.63 1.64 1.65 1.63 1.58 1.52 1.48 1.41 1.35 1.31 1.29
1.80 1.83 1.76 1.79 1.73 1.72 1.76 1.73 1.67 1.65 1.62 1.59 1.58 1.55 1.56 1.56 1.53 1.56 1.47 1.41 1.40 1.37 1.28 1.29 1.36 1.31 1.32 1.25 1.15 1.12 1.08 1.07 1.11 1.12 1.12 1.11 0.97 0.99 1.05 1.02 1.07 1.22 1.32 1.26 1.31 1.27 1.29 1.28 1.30 1.35 1.35 1.39 1.39 1.39 1.36 1.36 1.38 1.45 1.39 1.42 1.40 1.41 1.43 1.39 1.41 1.46 1.51 1.54 1.57 1.59 1.61 1.62 1.60 1.59 1.59 1.61 1.61 1.57 1.51 1.46 1.38 1.30 1.22 1.21 1.22
1.78 1.71 1.71 1.67 1.62 1.66 1.64 1.69 1.75 1.65 1.61 1.60 1.61 1.62 1.58 1.57 1.59 1.58 1.46 1.39 1.41 1.42 1.34 1.34 1.39 1.33 1.30 1.22 1.17 1.16 1.09 1.04 1.08 1.15 1.10 1.04 1.02 0.97 1.00 1.02 0.99 1.05 1.25 1.32 1.30 1.25 1.34 1.35 1.33 1.36 1.44 1.42 1.30 1.34 1.25 1.29 1.34 1.41 1.37 1.43 1.40 1.44 1.47 1.44 1.41 1.42 1.45 1.49 1.53 1.55 1.58 1.59 1.58 1.57 1.56 1.56 1.55 1.49 1.42 1.36 1.30 1.22 1.19 1.18 1.18
1.72 1.63 1.63 1.61 1.65 1.61 1.61 1.67 1.74 1.67 1.68 1.66 1.66 1.67 1.62 1.60 1.54 1.50 1.46 1.41 1.46 1.47 1.39 1.36 1.36 1.30 1.29 1.25 1.24 1.25 1.22 1.19 1.20 1.22 1.15 1.11 1.13 1.06 1.07 1.06 1.06 1.02 1.14 1.22 1.31 1.28 1.36 1.41 1.45 1.45 1.37 1.27 1.36 1.35 1.24 1.27 1.34 1.35 1.36 1.41 1.43 1.46 1.46 1.47 1.44 1.40 1.39 1.43 1.48 1.51 1.54 1.55 1.54 1.52 1.50 1.48 1.44 1.38 1.35 1.29 1.24 1.21 1.17 1.16 1.16
1.59 1.55 1.59 1.59 1.61 1.59 1.62 1.66 1.70 1.66 1.75 1.69 1.69 1.62 1.61 1.57 1.46 1.50 1.51 1.46 1.47 1.49 1.39 1.40 1.37 1.29 1.31 1.35 1.34 1.31 1.29 1.30 1.26 1.18 1.20 1.20 1.21 1.08 1.14 1.17 1.07 1.03 1.06 1.11 1.11 1.27 1.32 1.36 1.37 1.38 1.31 1.35 1.44 1.35 1.20 1.24 1.28 1.35 1.36 1.39 1.44 1.47 1.46 1.44 1.46 1.40 1.36 1.39 1.44 1.48 1.50 1.51 1.50 1.48 1.43 1.36 1.33 1.33 1.29 1.23 1.20 1.19 1.16 1.11 1.07
1.63 1.60 1.65 1.63 1.60 1.69 1.72 1.72 1.75 1.70 1.74 1.76 1.76 1.71 1.65 1.58 1.54 1.46 1.46 1.51 1.55 1.47 1.45 1.46 1.42 1.38 1.42 1.34 1.34 1.34 1.34 1.39 1.30 1.21 1.16 1.12 1.14 1.15 1.14 1.16 1.15 1.04 1.13 1.11 1.16 1.13 1.23 1.44 1.46 1.46 1.40 1.36 1.41 1.36 1.20 1.23 1.29 1.35 1.38 1.41 1.42 1.48 1.46 1.45 1.46 1.46 1.37 1.35 1.39 1.46 1.48 1.48 1.47 1.42 1.33 1.29 1.29 1.29 1.25 1.18 1.15 1.14 1.11 1.07 0.99
1.70 1.72 1.74 1.71 1.63 1.62 1.70 1.69 1.71 1.67 1.67 1.75 1.74 1.70 1.72 1.65 1.64 1.55 1.47 1.49 1.41 1.43 1.41 1.44 1.41 1.34 1.34 1.35 1.40 1.38 1.40 1.43 1.37 1.32 1.25 1.19 1.25 1.28 1.18 0.99 1.02 1.12 1.05 1.12 1.16 1.17 1.17 1.33 1.47 1.46 1.47 1.42 1.38 1.36 1.31 1.31 1.33 1.36 1.42 1.44 1.40 1.47 1.46 1.48 1.49 1.51 1.49 1.43 1.37 1.39 1.44 1.45 1.41 1.34 1.29 1.27 1.25 1.27 1.22 1.15 1.11 1.09 1.07 1.02 0.97
1.73 1.77 1.77 1.75 1.67 1.54 1.57 1.61 1.65 1.68 1.70 1.73 1.71 1.68 1.67 1.66 1.61 1.55 1.53 1.54 1.38 1.38 1.38 1.41 1.40 1.37 1.33 1.38 1.37 1.38 1.41 1.43 1.45 1.41 1.38 1.37 1.35 1.33 1.28 1.16 0.99 0.96 1.05 1.04 1.08 1.14 1.29 1.28 1.41 1.50 1.51 1.45 1.39 1.43 1.47 1.34 1.42 1.45 1.46 1.44 1.41 1.43 1.47 1.49 1.51 1.55 1.55 1.53 1.50 1.45 1.40 1.39 1.34 1.29 1.27 1.25 1.25 1.25 1.19 1.12 1.09 1.07 1.02 0.95 0.92
1.68 1.73 1.77 1.68 1.64 1.57 1.49 1.54 1.57 1.60 1.59 1.62 1.68 1.66 1.63 1.65 1.58 1.52 1.61 1.57 1.42 1.38 1.38 1.39 1.42 1.42 1.39 1.32 1.33 1.37 1.43 1.45 1.44 1.43 1.43 1.39 1.36 1.32 1.31 1.23 1.22 1.12 0.98 0.95 1.04 1.10 1.23 1.35 1.27 1.46 1.57 1.52 1.48 1.50 1.48 1.43 1.49 1.49 1.49 1.45 1.43 1.41 1.47 1.52 1.54 1.57 1.57 1.54 1.53 1.52 1.46 1.39 1.31 1.26 1.22 1.23 1.24 1.24 1.20 1.11 1.06 1.03 0.97 0.90 0.88
1.69 1.67 1.66 1.64 1.60 1.62 1.49 1.47 1.53 1.53 1.52 1.55 1.59 1.65 1.57 1.55 1.58 1.53 1.65 1.62 1.42 1.38 1.37 1.40 1.42 1.42 1.43 1.38 1.35 1.30 1.40 1.41 1.40 1.39 1.38 1.37 1.34 1.33 1.35 1.36 1.34 1.20 1.16 1.00 0.99 1.20 1.23 1.39 1.43 1.45 1.54 1.55 1.59 1.56 1.51 1.50 1.51 1.50 1.47 1.45 1.43 1.41 1.46 1.50 1.55 1.59 1.58 1.53 1.53 1.52 1.47 1.42 1.34 1.27 1.22 1.21 1.21 1.20 1.19 1.14 1.06 0.99 0.91 0.87 0.86
1.72 1.67 1.60 1.59 1.57 1.59 1.53 1.45 1.47 1.48 1.51 1.50 1.56 1.63 1.58 1.49 1.51 1.51 1.59 1.62 1.45 1.37 1.38 1.42 1.48 1.45 1.39 1.36 1.38 1.33 1.33 1.36 1.38 1.38 1.39 1.38 1.34 1.30 1.33 1.36 1.31 1.34 1.26 1.21 1.04 1.23 1.34 1.29 1.40 1.50 1.46 1.55 1.57 1.50 1.51 1.52 1.48 1.47 1.47 1.45 1.44 1.44 1.47 1.49 1.52 1.57 1.57 1.53 1.52 1.52 1.45 1.43 1.37 1.30 1.25 1.22 1.20 1.19 1.18 1.15 1.08 0.99 0.89 0.84 0.83
1.71 1.71 1.63 1.55 1.54 1.52 1.50 1.47 1.44 1.46 1.46 1.49 1.55 1.54 1.58 1.55 1.60 1.49 1.53 1.57 1.53 1.42 1.45 1.51 1.57 1.55 1.42 1.35 1.37 1.32 1.32 1.32 1.35 1.37 1.36 1.37 1.33 1.28 1.26 1.29 1.29 1.33 1.29 1.22 1.12 1.13 1.37 1.31 1.39 1.47 1.51 1.53 1.56 1.46 1.50 1.47 1.49 1.49 1.48 1.45 1.43 1.44 1.47 1.50 1.53 1.55 1.55 1.51 1.50 1.50 1.45 1.43 1.40 1.34 1.30 1.26 1.23 1.21 1.19 1.17 1.12 1.03 0.92 0.84 0.80
1.71 1.71 1.64 1.57 1.54 1.48 1.46 1.44 1.46 1.42 1.39 1.42 1.51 1.48 1.49 1.52 1.59 1.53 1.55 1.48 1.49 1.48 1.48 1.48 1.58 1.59 1.50 1.44 1.42 1.40 1.37 1.28 1.28 1.32 1.34 1.35 1.35 1.28 1.25 1.28 1.23 1.23 1.20 1.12 1.01 0.98 1.14 1.38 1.40 1.40 1.45 1.48 1.44 1.49 1.37 1.38 1.45 1.53 1.51 1.47 1.45 1.43 1.46 1.47 1.50 1.52 1.54 1.53 1.52 1.50 1.45 1.44 1.42 1.37 1.37 1.33 1.29 1.26 1.23 1.19 1.15 1.09 1.00 0.88 0.80
1.63 1.66 1.64 1.62 1.58 1.52 1.43 1.39 1.43 1.47 1.42 1.38 1.44 1.45 1.42 1.41 1.49 1.57 1.59 1.51 1.42 1.42 1.43 1.46 1.52 1.62 1.57 1.45 1.40 1.41 1.41 1.33 1.32 1.29 1.29 1.32 1.31 1.28 1.21 1.17 1.19 1.21 1.22 1.08 0.99 0.92 0.87 1.07 1.07 1.18 1.21 1.36 1.25 1.46 1.41 1.43 1.46 1.50 1.43 1.40 1.49 1.51 1.48 1.46 1.46 1.50 1.55 1.55 1.53 1.52 1.48 1.46 1.43 1.38 1.41 1.39 1.36 1.34 1.30 1.24 1.19 1.14 1.08 0.96 0.83
1.55 1.59 1.63 1.62 1.60 1.57 1.50 1.43 1.38 1.44 1.46 1.42 1.44 1.44 1.39 1.35 1.34 1.42 1.52 1.56 1.47 1.40 1.39 1.38 1.42 1.52 1.55 1.51 1.46 1.46 1.48 1.38 1.35 1.36 1.37 1.31 1.33 1.29 1.28 1.28 1.20 1.21 1.25 1.22 1.11 1.02 0.98 1.01 1.17 1.13 1.13 1.22 1.22 1.31 1.43 1.46 1.46 1.45 1.33 1.36 1.42 1.49 1.51 1.48 1.47 1.52 1.56 1.57 1.55 1.54 1.51 1.47 1.43 1.40 1.42 1.42 1.41 1.40 1.35 1.28 1.22 1.18 1.14 1.05 0.89
1.44 1.46 1.50 1.54 1.56 1.53 1.49 1.46 1.41 1.39 1.43 1.44 1.44 1.43 1.41 1.39 1.34 1.31 1.38 1.49 1.51 1.47 1.42 1.40 1.39 1.40 1.42 1.45 1.47 1.48 1.47 1.42 1.40 1.39 1.40 1.36 1.34 1.38 1.36 1.34 1.27 1.23 1.26 1.30 1.29 1.18 1.17 1.08 1.18 1.15 1.21 1.15 1.17 1.24 1.33 1.36 1.31 1.25 1.28 1.34 1.43 1.44 1.46 1.48 1.46 1.47 1.57 1.58 1.57 1.55 1.50 1.43 1.41 1.40 1.41 1.41 1.40 1.39 1.37 1.32 1.26 1.21 1.16 1.11 0.98
1.41 1.40 1.41 1.43 1.43 1.45 1.41 1.39 1.41 1.39 1.39 1.41 1.39 1.39 1.40 1.42 1.41 1.38 1.35 1.41 1.49 1.49 1.47 1.45 1.43 1.41 1.39 1.37 1.42 1.46 1.49 1.43 1.47 1.46 1.46 1.40 1.34 1.35 1.34 1.37 1.35 1.30 1.27 1.26 1.28 1.30 1.23 1.15 1.17 1.27 1.30 1.27 1.31 1.30 1.30 1.20 1.22 1.28 1.35 1.35 1.37 1.36 1.41 1.46 1.47 1.53 1.60 1.60 1.55 1.48 1.38 1.34 1.37 1.37 1.36 1.36 1.36 1.35 1.33 1.32 1.31 1.26 1.18 1.13 1.06
1.35 1.36 1.35 1.37 1.34 1.34 1.38 1.38 1.38 1.38 1.38 1.38 1.36 1.35 1.35 1.38 1.40 1.41 1.40 1.38 1.43 1.47 1.47 1.44 1.41 1.43 1.41 1.40 1.41 1.42 1.42 1.39 1.41 1.45 1.45 1.41 1.39 1.31 1.29 1.31 1.35 1.37 1.32 1.30 1.30 1.29 1.25 1.20 1.17 1.14 1.24 1.21 1.21 1.21 1.24 1.29 1.23 1.19 1.25 1.34 1.35 1.38 1.38 1.38 1.42 1.53 1.59 1.52 1.43 1.38 1.30 1.26 1.29 1.29 1.28 1.30 1.31 1.30 1.28 1.30 1.32 1.28 1.20 1.15 1.11
1.26 1.29 1.31 1.32 1.34 1.31 1.30 1.31 1.32 1.35 1.36 1.35 1.33 1.33 1.32 1.31 1.33 1.34 1.33 1.33 1.33 1.37 1.40 1.39 1.37 1.37 1.37 1.38 1.38 1.39 1.39 1.40 1.38 1.37 1.37 1.37 1.38 1.36 1.33 1.27 1.30 1.29 1.28 1.27 1.26 1.22 1.19 1.15 1.16 1.17 1.14 1.23 1.22 1.10 1.23 1.39 1.39 1.34 1.21 1.17 1.18 1.35 1.38 1.42 1.37 1.47 1.50 1.44 1.40 1.34 1.28 1.23 1.20 1.22 1.24 1.24 1.26 1.26 1.22 1.24 1.29 1.28 1.24 1.20 1.16
1.22 1.23 1.27 1.27 1.30 1.31 1.29 1.27 1.26 1.28 1.29 1.30 1.30 1.30 1.28 1.26 1.26 1.26 1.27 1.26 1.24 1.23 1.23 1.24 1.23 1.22 1.22 1.23 1.22 1.23 1.25 1.29 1.31 1.34 1.36 1.33 1.37 1.35 1.38 1.36 1.31 1.26 1.22 1.23 1.22 1.21 1.19 1.19 1.16 1.15 1.19 1.16 1.20 1.26 1.31 1.32 1.25 1.24 1.28 1.24 1.12 1.16 1.24 1.42 1.50 1.38 1.38 1.29 1.21 1.23 1.24 1.19 1.16 1.16 1.17 1.18 1.20 1.23 1.22 1.20 1.26 1.31 1.28 1.27 1.24
1.28 1.28 1.28 1.28 1.27 1.26 1.27 1.25 1.25 1.25 1.21 1.18 1.20 1.22 1.22 1.21 1.20 1.18 1.20 1.21 1.22 1.20 1.17 1.13 1.13 1.13 1.14 1.16 1.17 1.19 1.22 1.24 1.27 1.29 1.31 1.33 1.29 1.25 1.30 1.34 1.31 1.28 1.25 1.24 1.22 1.19 1.18 1.17 1.14 1.19 1.15 1.12 1.14 1.14 1.13 1.11 1.06 1.06 1.22 1.31 1.26 1.29 1.31 1.29 1.42 1.46 1.34 1.20 1.18 1.13 1.08 1.12 1.09 1.07 1.07 1.05 1.12 1.19 1.22 1.22 1.28 1.37 1.35 1.33 1.33
1.45 1.39 1.33 1.33 1.31 1.28 1.25 1.26 1.26 1.24 1.20 1.19 1.15 1.13 1.15 1.15 1.15 1.12 1.14 1.14 1.14 1.14 1.13 1.11 1.11 1.13 1.15 1.16 1.17 1.21 1.22 1.24 1.25 1.27 1.29 1.32 1.36 1.33 1.28 1.29 1.27 1.25 1.24 1.22 1.20 1.18 1.14 1.08 1.07 1.08 1.05 1.03 1.05 1.08 1.06 1.08 1.16 1.25 1.25 1.29 1.20 1.22 1.26 1.22 1.25 1.25 1.33 1.24 1.17 1.07 1.07 1.14 1.10 1.05 1.03 0.98 1.08 1.14 1.20 1.25 1.32 1.40 1.41 1.38 1.36
1.60 1.55 1.51 1.47 1.41 1.36 1.30 1.30 1.30 1.28 1.28 1.26 1.21 1.17 1.14 1.13 1.14 1.11 1.06 1.06 1.08 1.07 1.06 1.06 1.04 1.07 1.11 1.14 1.16 1.18 1.20 1.23 1.29 1.28 1.27 1.27 1.28 1.30 1.31 1.31 1.30 1.24 1.18 1.17 1.16 1.19 1.15 1.12 1.13 1.14 1.10 1.06 1.09 1.16 1.14 1.14 1.16 1.15 1.14 1.17 1.14 1.11 1.04 0.99 0.92 1.11 1.31 1.27 1.16 1.06 1.03 1.16 1.16 1.02 1.00 0.99 1.05 1.12 1.22 1.28 1.38 1.43 1.45 1.40 1.36
1.58 1.61 1.59 1.58 1.56 1.54 1.46 1.38 1.33 1.34 1.35 1.34 1.30 1.28 1.25 1.22 1.20 1.17 1.14 1.06 1.03 1.04 1.03 1.01 1.00 1.00 1.01 1.05 1.09 1.12 1.14 1.14 1.11 1.15 1.20 1.22 1.22 1.22 1.22 1.24 1.25 1.26 1.24 1.17 1.11 1.12 1.14 1.09 1.07 1.07 1.07 1.03 1.04 1.10 1.10 1.12 1.11 1.16 1.19 1.19 1.14 1.07 1.03 1.02 1.04 0.99 1.19 1.29 1.08 0.96 0.92 1.15 1.19 1.11 1.04 1.01 1.06 1.13 1.21 1.32 1.41 1.44 1.44 1.40 1.36
1.64 1.56 1.58 1.62 1.65 1.66 1.59 1.55 1.51 1.50 1.46 1.44 1.41 1.39 1.37 1.34 1.30 1.27 1.22 1.16 1.08 1.02 1.03 1.03 1.02 0.99 0.97 0.95 0.96 1.00 1.01 1.03 1.07 1.08 1.09 1.08 1.11 1.15 1.17 1.17 1.18 1.19 1.21 1.23 1.24 1.17 1.17 1.14 1.08 1.04 1.05 1.06 1.04 1.05 1.12 1.12 1.19 1.12 1.16 1.15 1.15 1.14 1.12 1.04 0.99 0.99 1.05 1.25 1.11 0.99 0.87 1.01 1.13 1.11 1.05 1.06 1.12 1.17 1.20 1.24 1.28 1.32 1.35 1.35 1.33
1.78 1.69 1.65 1.63 1.66 1.66 1.63 1.61 1.61 1.62 1.63 1.62 1.60 1.56 1.53 1.50 1.45 1.42 1.37 1.29 1.20 1.12 1.05 1.00 0.99 1.00 1.00 0.98 0.96 0.94 0.96 0.97 0.97 0.96 1.00 1.07 1.10 1.13 1.13 1.14 1.13 1.12 1.13 1.13 1.13 1.16 1.18 1.12 1.07 0.99 1.02 1.11 1.01 1.00 1.07 1.14 1.09 1.01 0.99 0.98 1.03 1.02 1.02 1.01 1.07 1.05 1.08 1.18 1.02 1.00 0.90 0.90 1.09 1.10 1.03 1.10 1.23 1.20 1.21 1.23 1.24 1.27 1.32 1.35 1.33
1.90 1.82 1.77 1.74 1.74 1.74 1.72 1.70 1.66 1.63 1.69 1.75 1.73 1.70 1.66 1.63 1.60 1.56 1.50 1.45 1.41 1.36 1.29 1.20 1.09 1.01 0.99 0.99 0.98 0.97 0.98 0.99 1.02 1.01 0.99 0.99 1.01 1.04 1.06 1.08 1.11 1.11 1.10 1.09 1.08 1.06 1.05 1.07 1.05 1.00 0.97 1.02 1.05 1.05 1.08 1.15 1.14 1.11 1.11 1.08 1.12 1.15 1.17 1.21 1.17 1.12 1.07 1.14 1.16 1.11 0.88 0.92 1.04 0.99 0.94 1.00 1.17 1.19 1.22 1.25 1.26 1.26 1.31 1.33 1.30
2.05 2.00 1.96 1.94 1.87 1.83 1.82 1.79 1.74 1.69 1.70 1.80 1.86 1.80 1.77 1.71 1.68 1.64 1.57 1.49 1.44 1.41 1.38 1.36 1.31 1.25 1.18 1.10 1.04 1.00 0.99 1.00 1.03 1.06 1.07 1.08 1.05 1.01 0.97 0.98 1.00 1.04 1.06 1.09 1.10 1.10 1.07 1.04 1.01 0.99 0.97 0.96 0.94 0.92 0.94 1.01 1.07 1.12 1.16 1.24 1.26 1.17 1.06 0.97 0.87 0.91 0.90 1.05 1.17 1.09 0.99 1.00 1.09 0.99 0.94 1.07 1.15 1.10 1.16 1.17 1.22 1.25 1.28 1.30 1.26
2.01 2.01 2.02 2.00 1.97 1.91 1.87 1.85 1.81 1.79 1.84 1.92 1.85 1.82 1.77 1.68 1.58 1.54 1.53 1.52 1.49 1.45 1.40 1.38 1.36 1.33 1.31 1.27 1.22 1.16 1.12 1.09 1.11 1.12 1.13 1.14 1.10 1.05 1.02 0.99 0.98 0.97 0.95 1.00 1.05 1.07 1.08 1.08 1.07 1.05 1.04 1.01 1.01 1.01 1.01 1.03 1.08 1.14 1.16 1.09 1.00 1.01 0.94 0.86 0.86 0.88 0.86 0.99 1.11 1.17 1.12 1.02 1.08 1.09 1.03 1.08 1.10 1.08 1.05 1.07 1.14 1.19 1.24 1.26 1.24
2.00 2.01 2.03 2.01 1.99 1.93 1.85 1.84 1.88 1.84 1.88 1.88 1.88 1.90 1.83 1.74 1.67 1.59 1.49 1.40 1.46 1.44 1.36 1.42 1.43 1.39 1.35 1.32 1.30 1.25 1.20 1.17 1.17 1.15 1.14 1.15 1.12 1.09 1.06 1.02 1.00 0.99 0.99 1.06 1.10 1.11 1.14 1.17 1.17 1.17 1.17 1.16 1.14 1.14 1.14 1.13 1.12 1.17 1.14 1.00 1.03 1.07 0.99 0.96 0.86 0.88 0.96 1.04 1.10 1.31 1.18 1.02 1.12 1.17 1.06 1.09 1.09 1.11 1.12 1.14 1.15 1.19 1.20 1.19 1.20
2.10 2.11 2.10 2.08 2.08 2.08 2.04 1.99 2.00 1.97 1.90 1.86 1.85 1.77 1.78 1.84 1.84 1.83 1.77 1.65 1.47 1.41 1.39 1.33 1.35 1.39 1.40 1.42 1.40 1.38 1.36 1.34 1.36 1.36 1.36 1.35 1.26 1.17 1.13 1.10 1.03 0.98 1.00 1.09 1.11 1.09 1.12 1.14 1.14 1.18 1.18 1.20 1.21 1.20 1.19 1.20 1.21 1.24 1.24 1.16 1.14 1.08 0.96 0.92 0.93 0.96 0.93 0.94 1.11 1.35 1.11 1.02 1.04 1.07 1.05 0.99 0.91 1.09 1.17 1.17 1.18 1.19 1.20 1.19 1.17
Wind_Speed
14 14 15 15 15 15 15 15 15 15 15 15 15 15 14 14 15 15 16 16 16 17 17 16 16 16 15 14 13 13 13 13 13 12 11 11 11 11 11 11 12 12 12 12 12 13 13 13 13 13 13 13 13 13 13 14 14 14 15 15 15 15 16 16 16 17 17 18 18 18 18 19 19 19 20 21 21 22 22 22 22 21 21 21 21
14 14 14 15 15 15 15 15 15 15 15 15 15 15 15 16 16 16 16 16 17 16 16 16 15 14 14 14 12 12 12 12 12 12 12 11 11 11 11 12 12 12 12 12 12 12 13 13 13 13 13 13 13 13 13 13 14 14 14 14 15 15 15 16 16 17 17 17 18 18 18 18 19 19 20 20 21 21 22 22 22 22 21 21 21
14 14 14 15 15 15 15 15 15 15 15 16 16 16 16 16 16 16 16 16 16 15 15 14 14 13 13 13 12 12 11 12 12 12 12 12 12 12 12 12 12 12 12 12 12 12 12 13 13 13 13 13 12 13 13 13 13 14 14 14 14 15 15 16 16 17 17 17 18 18 18 19 19 19 19 20 20 21 21 22 22 22 21 21 20
14 14 14 14 14 14 14 15 15 15 15 15 16 16 16 16 15 15 15 15 15 14 14 13 13 12 12 11 11 11 11 11 11 11 12 12 12 12 12 12 12 12 12 12 12 12 12 12 12 12 12 12 12 12 13 13 13 13 14 14 14 14 15 16 16 16 17 17 18 18 19 19 19 19 19 20 20 21 21 22 22 22 22 21 21
14 14 14 14 14 14 14 14 14 15 15 14 14 15 15 15 15 14 14 14 14 13 13 13 12 12 11 11 11 10 10 10 10 11 11 11 12 12 12 12 12 12 12 12 12 12 12 12 12 12 12 12 12 12 12 13 13 13 13 13 14 14 15 15 15 16 16 17 18 18 18 19 19 19 19 20 20 21 21 21 21 22 21 21 21
14 14 14 14 14 14 14 14 14 14 14 14 14 14 14 14 14 14 13 13 13 12 12 12 11 11 10 10 10 10 9 10 10 10 11 11 11 11 11 11 11 11 12 12 11 11 11 12 12 12 12 12 12 12 12 12 12 13 13 13 14 14 14 15 15 16 16 17 17 18 18 19 19 19 20 20 20 20 21 21 21 21 21 21 21
14 14 13 13 13 13 13 13 14 14 14 13 13 13 14 14 13 13 12 12 12 11 11 11 10 10 10 9 10 10 10 10 10 10 10 10 11 11 11 11 11 11 11 11 11 11 11 12 11 11 12 12 12 12 12 12 12 13 13 13 13 14 14 15 15 16 16 17 18 18 18 19 19 20 20 20 20 20 20 21 21 21 21 21 21
13 13 13 13 12 12 13 13 13 13 13 13 12 12 12 12 12 12 12 11 11 11 11 10 10 9 9 9 9 9 9 9 9 10 9 9 10 11 11 11 11 11 11 11 11 11 11 11 11 11 11 11 11 11 12 12 12 12 13 13 13 14 14 15 15 16 17 17 18 18 19 19 20 20 20 20 20 20 20 21 21 21 21 21 21
12 12 12 12 12 12 12 12 12 12 12 12 11 11 11 11 11 11 11 11 11 10 9 9 9 9 9 8 8 8 8 9 9 9 9 10 10 11 11 11 11 11 11 11 11 11 11 11 11 11 11 11 11 11 11 11 12 12 13 13 13 14 14 15 16 17 17 18 18 19 19 19 20 20 20 20 20 20 20 20 21 22 21 21 21
12 12 12 12 12 12 12 11 11 11 11 11 11 10 11 11 10 10 10 10 9 9 8 8 8 8 8 8 8 8 8 8 9 9 10 10 10 10 11 11 11 11 11 11 11 11 11 11 11 11 11 11 11 11 11 11 12 12 13 13 13 14 15 16 16 17 17 18 18 18 19 19 19 20 20 20 20 20 20 20 20 21 21 21 21
11 11 11 11 11 11 11 11 11 11 11 10 10 10 10 10 9 9 9 9 8 8 8 8 8 8 8 7 7 7 7 8 9 9 10 10 10 10 11 11 11 10 10 11 11 11 10 10 10 10 10 10 10 10 10 11 12 12 13 13 13 14 15 16 17 17 18 18 18 18 19 19 19 20 20 20 20 20 20 20 20 20 21 21 21
11 11 11 11 10 11 10 10 10 10 10 10 10 9 9 9 9 9 9 8 8 8 7 7 8 8 8 7 7 7 7 8 9 9 10 10 10 10 10 11 10 10 10 10 11 11 10 10 10 10 10 10 10 10 10 10 11 12 13 13 14 14 15 16 17 17 17 18 18 18 19 19 20 20 20 20 20 20 19 20 20 20 20 21 21
10 10 10 10 10 10 10 10 9 9 9 9 9 9 9 9 9 9 9 8 8 8 7 8 8 8 7 7 7 7 8 8 8 9 10 10 10 10 10 11 10 10 10 10 10 10 10 10 10 10 10 9 9 9 9 10 11 12 12 13 14 14 15 16 17 17 17 18 18 18 19 19 20 20 20 20 20 19 19 20 20 20 21 21 21
10 10 10 10 10 9 9 9 9 9 8 9 9 8 8 8 9 9 8 8 8 8 8 8 8 8 7 7 7 7 7 8 8 9 10 10 10 11 10 10 10 10 10 10 10 10 10 9 10 10 9 9 9 9 9 9 10 11 12 12 13 14 15 16 17 17 17 18 18 18 19 19 20 20 21 20 20 19 19 19 20 20 21 21 21
10 9 9 9 9 9 9 9 8 8 8 8 8 8 8 8 8 8 8 8 8 8 8 8 8 8 8 8 7 8 8 8 9 9 10 10 10 10 10 10 10 10 10 10 10 10 9 10 10 9 9 9 9 9 9 9 10 10 11 12 13 14 15 16 17 17 18 18 19 19 19 20 20 20 21 21 20 20 19 19 20 20 20 21 21
9 9 9 9 9 9 8 8 8 8 8 8 8 8 8 8 8 8 8 8 7 8 8 8 8 8 8 7 7 8 8 8 9 10 10 10 9 10 10 10 9 10 9 9 9 10 9 10 10 9 9 9 8 8 8 9 9 10 11 12 12 13 14 15 16 17 18 18 19 20 20 20 20 20 21 21 20 20 20 20 20 20 20 20 21
9 9 9 9 9 8 8 8 8 8 8 8 8 8 8 8 8 8 8 7 7 7 7 7 7 8 8 8 8 8 8 9 9 9 9 9 9 9 9 9 9 9 8 8 8 9 9 9 9 9 9 8 8 7 7 8 9 9 10 11 12 13 14 15 16 16 17 18 19 20 20 21 21 20 21 21 21 21 20 20 20 20 20 20 20
9 9 9 9 8 8 8 8 8 8 8 8 8 8 8 7 7 8 8 7 7 7 7 6 7 7 7 7 7 8 8 8 9 8 8 9 9 9 9 8 8 9 8 8 8 8 8 8 8 8 8 7 7 7 6 7 8 9 10 11 12 13 14 14 15 16 17 18 19 19 20 21 21 21 21 21 21 21 21 20 19 20 20 20 20
9 9 9 9 8 8 8 8 8 8 8 7 8 8 7 7 7 7 7 7 7 7 7 6 7 7 6 5 5 6 7 7 8 8 8 8 8 9 9 8 8 9 9 9 8 8 7 7 7 7 7 7 6 6 6 6 7 8 10 10 12 13 13 14 14 15 16 17 18 19 19 20 21 21 21 21 21 21 21 20 20 20 20 20 20
8 8 9 9 8 8 8 8 8 8 8 7 7 7 7 7 7 7 7 7 7 7 7 7 7 6 5 5 5 5 6 6 7 8 8 8 7 8 8 8 8 8 9 9 8 8 7 7 7 7 6 6 6 6 6 6 7 8 9 10 11 13 13 13 14 14 15 16 17 18 18 19 20 21 21 21 21 21 21 21 20 20 19 20 20
8 8 8 8 8 8 8 8 8 7 7 7 7 7 7 7 7 7 6 7 7 7 7 7 6 6 5 5 6 6 6 6 7 7 7 8 7 7 8 9 8 8 8 9 8 8 8 7 7 7 6 6 6 6 6 6 6 7 8 9 10 12 13 13 13 14 14 15 16 17 17 18 19 20 20 20 21 21 21 21 20 20 19 19 19
8 8 8 8 8 8 8 8 8 7 7 7 7 7 7 7 7 6 6 7 7 7 7 6 6 6 6 6 6 6 6 7 7 7 7 7 7 6 7 8 8 8 8 9 8 7 7 7 7 7 6 6 6 5 5 5 6 7 7 8 9 11 12 13 13 13 14 14 15 16 16 17 18 19 19 19 20 21 21 21 21 20 20 19 19
7 7 8 8 8 8 8 8 7 7 7 7 7 7 7 7 6 6 6 7 7 6 6 6 5 5 6 6 6 6 6 6 6 6 7 7 7 6 6 7 7 7 7 8 7 6 7 7 7 7 6 5 5 4 4 5 5 6 6 7 8 10 11 12 12 13 14 14 14 15 15 16 17 18 18 18 19 20 21 21 21 20 20 19 19
7 7 7 8 8 8 8 8 7 7 7 7 6 7 7 6 6 6 6 7 7 6 6 6 5 5 6 6 6 6 6 5 5 6 6 6 6 6 5 6 7 6 6 6 6 5 6 6 6 5 4 4 4 4 4 4 5 6 6 6 7 9 10 11 12 13 13 14 14 14 14 15 15 16 17 17 18 19 20 20 20 20 19 19 19
8 8 7 7 7 7 7 7 7 7 7 7 6 7 7 6 7 6 6 6 6 6 6 6 6 6 6 6 6 5 5 4 4 6 6 6 6 5 5 6 6 6 6 6 5 5 5 5 4 3 3 3 3 3 3 3 4 5 6 6 7 8 9 9 11 12 13 13 13 14 14 14 14 15 16 16 17 18 19 20 19 19 19 19 19
8 8 7 7 7 7 7 7 7 7 7 7 6 6 6 6 7 6 6 6 6 6 6 6 6 6 6 5 5 4 4 3 4 5 6 6 6 5 4 5 5 6 5 5 5 4 5 4 3 2 3 2 2 2 2 3 3 4 5 6 6 7 8 9 10 11 13 13 13 13 13 13 13 14 15 15 16 17 18 19 19 18 18 19 19
8 8 8 7 7 7 7 7 7 7 7 6 6 6 6 6 6 6 6 6 6 6 6 6 6 6 6 5 4 4 4 3 3 4 6 6 6 5 4 4 4 5 5 5 5 4 4 5 3 2 2 1 1 1 1 2 3 4 4 5 6 6 7 8 9 10 12 13 14 13 13 13 12 13 13 14 15 16 16 17 18 18 18 18 18
8 8 8 8 7 7 7 7 7 7 7 7 6 6 6 6 6 6 6 5 6 6 6 6 6 6 6 5 5 4 4 3 3 3 5 6 5 5 4 4 4 4 4 5 5 4 3 4 4 2 1 0 1 1 1 2 3 4 5 6 6 6 7 8 9 10 11 12 13 13 13 12 12 12 12 13 14 15 15 16 16 17 17 17 17
9 8 8 8 8 7 7 7 7 7 7 7 6 6 6 6 6 6 6 5 5 6 6 6 6 6 6 6 5 5 5 4 3 3 3 4 5 5 4 4 5 4 4 4 5 4 3 2 3 3 1 1 1 1 2 3 4 4 5 6 6 7 7 8 9 9 10 11 12 12 12 12 11 11 11 12 13 14 14 15 15 15 16 16 16
9 9 8 8 8 8 7 7 7 7 7 7 7 6 6 6 6 6 5 5 5 6 6 6 6 6 5 5 5 6 5 5 4 3 3 3 4 5 5 5 5 5 4 4 5 5 4 2 2 2 2 2 2 3 3 4 4 5 6 6 6 7 7 8 9 9 10 10 11 11 12 11 11 11 11 12 12 13 13 14 14 14 14 15 15
10 9 9 9 9 8 8 7 7 7 7 7 7 7 6 6 6 6 6 5 5 6 6 5 5 5 5 5 5 5 5 5 5 4 4 4 4 5 6 6 6 5 5 5 5 5 5 3 2 2 2 2 3 4 4 4 5 6 6 7 7 7 7 8 9 9 10 10 10 10 11 11 11 11 11 11 12 12 13 13 13 13 13 14 14
11 10 10 9 9 9 8 8 8 8 7 7 7 7 7 6 6 6 6 6 6 6 5 5 5 5 5 5 5 5 5 6 6 5 5 5 5 5 6 6 6 6 6 6 6 6 6 6 5 4 4 4 4 4 5 6 6 7 7 8 8 8 8 8 9 9 9 10 10 10 10 10 11 11 11 11 12 12 12 13 13 13 13 13 13
12 11 11 10 10 10 9 9 8 8 8 7 7 7 7 7 7 6 6 6 6 6 5 5 5 4 4 5 5 5 5 6 6 6 6 6 5 6 7 7 7 8 7 7 8 8 8 7 7 7 6 6 6 5 6 7 7 7 8 9 8 8 8 9 10 9 9 10 10 10 10 10 10 11 11 11 12 12 12 13 13 13 12 12 13
13 13 12 12 11 11 10 10 9 9 8 8 8 8 7 7 7 7 6 6 6 6 6 6 5 5 4 5 5 5 5 5 6 6 6 6 6 6 6 7 8 8 8 8 9 9 9 9 8 9 8 8 7 7 7 7 8 9 9 10 9 9 9 9 10 10 10 10 10 11 11 11 11 11 11 11 11 11 12 12 12 12 12 12 12
14 14 14 13 12 12 11 11 10 10 10 9 9 8 8 8 8 8 7 7 7 7 7 6 6 5 5 5 5 5 5 5 6 6 6 7 7 6 7 7 8 8 8 8 9 9 10 10 10 10 10 9 9 9 9 9 10 10 10 10 10 10 10 10 10 10 11 11 11 11 11 11 11 11 11 11 11 11 12 12 12 12 12 12 12
16 15 15 14 14 13 12 12 12 11 11 10 10 9 9 9 9 9 8 8 7 7 7 7 6 6 6 5 5 5 5 5 6 6 6 6 7 7 7 7 8 8 9 9 9 10 10 10 10 10 10 10 10 10 11 11 11 11 11 11 11 11 11 11 11 11 11 11 12 12 12 12 12 11 11 11 12 12 12 12 12 12 12 12 12
17 17 16 15 15 14 14 13 13 12 12 12 11 11 10 10 10 9 9 9 8 8 8 8 7 7 7 6 6 6 6 6 6 6 6 6 7 7 8 7 7 7 8 8 9 9 10 11 11 11 11 11 11 11 11 11 11 11 11 11 11 11 11 11 11 11 11 11 12 12 13 13 12 12 11 12 12 12 12 12 12 12 12 12 12
19 18 17 17 16 16 15 14 14 14 13 13 13 12 12 11 11 10 10 10 9 9 9 9 8 8 8 7 7 7 7 7 7 7 7 7 7 8 8 8 8 8 8 9 9 10 10 11 12 12 11 11 11 11 11 11 11 11 11 11 11 11 11 11 11 11 11 11 12 12 13 13 13 13 12 12 12 12 12 12 12 12 12 12 12
19 19 19 18 17 17 16 16 15 15 15 14 14 14 13 13 12 12 11 11 11 11 10 10 9 9 9 9 8 8 8 8 8 8 8 8 8 8 8 9 9 9 9 10 10 11 11 12 12 12 12 12 12 11 11 10 11 11 11 12 12 12 11 11 11 12 12 12 12 13 13 13 13 13 13 13 12 13 13 12 12 12 12 12 12
20 20 20 19 19 18 17 17 17 16 16 16 16 15 15 14 14 13 13 13 12 12 12 11 11 11 10 10 10 10 9 9 9 9 9 9 9 9 9 9 9 10 10 11 11 11 11 11 12 12 12 12 12 12 11 11 11 12 12 12 12 12 12 12 12 12 12 13 13 13 13 13 13 13 14 13 13 13 13 13 12 12 12 11 11
20 20 20 20 20 19 19 18 18 17 17 17 17 17 17 16 16 15 15 14 14 13 13 13 13 12 12 12 11 11 11 11 11 10 10 10 10 10 10 10 10 11 11 11 11 12 12 12 12 12 13 13 13 13 13 13 13 13 12 13 13 13 13 12 12 12 12 13 13 13 13 13 13 13 13 14 13 13 14 13 12 12 12 11 11
21 20 20 20 21 21 20 19 19 19 18 18 18 19 18 18 17 17 17 16 16 15 15 15 14 14 14 13 13 13 13 13 13 13 13 12 12 12 12 12 12 12 12 12 12 13 13 13 13 13 13 13 14 14 14 14 14 13 13 13 14 14 13 13 13 13 13 13 13 13 13 13 13 13 13 14 13 13 13 14 13 12 12 12 12
20 20 20 20 20 21 21 21 20 20 20 19 19 20 20 20 19 19 19 18 18 17 17 17 16 16 16 15 15 15 15 15 15 15 15 15 15 15 14 14 14 14 14 14 14 14 14 14 14 14 14 15 15 15 15 15 15 14 14 14 14 14 14 13 13 13 13 13 14 14 14 14 13 13 13 14 13 13 13 13 13 13 12 12 12
19 20 20 19 19 19 20 20 21 21 20 20 20 20 21 21 21 21 20 20 20 19 19 19 18 18 17 17 17 17 17 16 16 16 16 17 17 17 17 16 16 16 16 15 16 16 16 16 16 16 16 16 16 16 16 16 16 15 15 14 14 14 13 13 13 13 14 14 15 16 15 14 14 14 14 14 13 13 13 13 13 13 13 12 12
20 20 21 21 20 19 19 19 20 20 21 21 21 21 21 21 22 22 21 21 21 21 21 21 20 20 20 20 19 19 19 19 19 18 18 18 18 19 19 19 18 18 18 18 17 17 17 17 17 18 17 17 17 17 17 17 17 16 16 16 15 15 14 14 15 15 16 16 17 17 16 15 15 15 15 15 14 13 13 13 13 13 13 13 12
20 21 21 22 22 22 21 20 20 20 20 20 21 22 22 22 22 22 22 22 23 23 23 22 22 22 22 22 22 21 21 21 21 21 20 20 20 20 20 20 20 20 20 20 19 19 19 19 19 19 19 19 19 19 18 18 18 18 18 18 18 17 17 17 17 18 18 18 17 17 17 16 16 16 16 16 15 14 14 14 14 14 14 13 13
22 21 22 22 23 23 23 23 22 22 21 20 20 21 22 22 23 23 23 24 24 24 24 24 24 24 23 23 23 23 23 23 23 23 23 22 22 22 22 22 22 22 22 22 21 21 21 21 21 21 21 21 21 21 20 20 20 20 20 20 19 19 19 19 20 20 20 19 18 18 18 18 17 17 17 17 16 16 16 15 15 14 14 14 14
23 23 22 23 24 24 24 24 24 24 24 23 22 21 21 22 22 23 24 25 25 25 25 25 25 24 24 24 24 24 24 24 24 24 24 24 24 24 24 24 24 24 23 24 24 24 24 23 23 23 22 22 23 23 22 22 21 21 21 21 21 21 21 21 21 21 21 20 19 19 19 20 19 19 18 17 17 17 17 16 15 15 14 14 15
24 24 24 23 24 24 25 25 25 25 25 25 24 24 23 23 23 23 24 24 25 26 26 26 26 26 26 26 25 25 25 25 25 25 25 25 25 25 25 25 25 25 25 25 25 26 26 26 25 25 25 24 24 24 23 23 23 22 22 22 22 21 22 22 22 21 21 21 20 19 20 20 20 19 19 18 18 18 17 16 16 16 15 15 15
24 24 24 24 24 25 25 25 25 25 25 26 26 26 26 26 26 26 26 26 26 27 27 27 28 28 28 28 28 27 27 27 27 27 27 26 26 26 27 26 26 27 26 26 26 26 26 27 27 27 26 26 25 25 25 24 24 23 23 23 23 22 22 23 23 23 23 22 21 20 20 21 20 19 19 18 17 17 17 17 17 16 16 16 16
23 24 25 25 25 25 25 25 25 25 26 26 26 26 27 27 27 28 28 29 29 29 29 29 29 29 29 30 30 30 29 29 29 29 29 29 28 28 28 28 28 28 28 28 27 27 27 27 27 27 27 27 26 26 26 26 26 25 24 24 24 24 24 24 24 23 23 22 21 20 21 21 20 20 19 18 17 17 17 17 17 17 17 16 16
Wind_Direction
111 112 112 110 108 107 106 106 107 107 107 106 107 107 106 108 108 109 110 108 107 108 108 107 107 108 110 110 107 102 99 98 95 95 99 101 101 101 101 102 102 100 98 98 98 96 94 92 91 89 86 83 81 78 75 72 69 67 65 63 61 58 56 53 50 47 45 43 40 39 37 35 34 33 32 31 30 28 27 27 27 27 28 29 31
113 113 112 110 109 109 108 108 108 108 106 106 107 107 106 106 107 108 110 109 108 109 107 106 107 107 107 106 104 101 99 97 95 94 96 99 101 103 103 103 102 100 100 99 98 97 93 92 91 88 86 84 82 79 76 73 70 68 66 63 60 57 54 51 48 45 43 41 39 37 35 33 32 31 30 29 28 27 26 25 25 26 28 30 32
113 113 112 111 111 110 110 109 109 108 107 107 108 107 107 107 108 108 109 110 110 110 109 107 107 109 107 103 100 99 98 97 94 93 95 99 102 104 104 104 103 101 101 101 99 97 93 91 91 89 87 86 83 80 77 74 71 68 66 63 59 56 52 49 46 43 41 39 37 36 34 33 32 31 30 29 28 27 26 25 25 26 29 32 34
113 114 114 114 113 112 112 110 109 109 109 109 109 109 109 109 110 109 109 110 110 110 110 107 106 107 107 103 100 99 99 99 95 93 96 99 102 104 105 104 103 103 103 102 100 96 92 91 90 89 88 86 83 80 77 74 71 69 66 62 58 55 51 48 44 41 39 37 36 34 33 32 31 31 30 30 29 27 27 26 26 28 31 34 35
114 116 116 115 115 114 113 112 110 111 110 109 109 110 110 109 109 109 108 109 109 110 110 107 106 106 105 102 101 101 102 104 99 95 97 100 103 105 105 105 104 104 104 102 101 96 92 92 91 89 89 87 84 80 77 74 72 69 65 61 57 53 49 45 42 40 37 36 35 33 33 32 31 31 30 30 29 28 28 27 28 29 32 34 35
115 117 117 116 115 114 115 114 112 112 111 110 110 111 112 110 108 108 109 109 108 110 110 107 107 106 103 100 99 98 99 106 104 98 99 101 104 106 106 107 107 106 105 102 100 95 93 93 92 91 90 89 85 81 77 74 71 67 63 59 55 51 47 43 40 38 36 35 34 33 33 32 31 31 30 30 30 29 29 29 29 30 32 34 34
116 117 117 117 115 115 117 116 116 115 113 113 113 113 114 112 110 109 110 109 107 108 110 109 108 108 105 99 99 96 95 104 107 103 104 103 104 107 108 109 109 108 106 103 99 95 95 96 94 93 92 89 85 81 78 74 69 65 61 56 52 48 44 41 38 37 35 35 34 33 33 32 31 31 31 30 30 30 30 30 30 31 33 34 34
117 118 118 118 117 118 118 118 119 118 117 115 114 115 117 115 113 111 110 109 107 107 109 109 107 108 107 100 99 98 97 102 106 108 112 109 107 108 108 109 110 109 106 102 98 95 97 98 97 96 94 90 85 81 77 72 67 62 58 53 49 46 43 40 38 36 35 35 34 33 32 31 30 30 30 30 30 30 30 31 31 32 33 34 35
121 121 120 120 121 121 121 121 121 120 119 117 115 116 118 117 115 114 113 110 107 106 108 110 107 105 107 104 98 99 101 104 108 111 114 114 113 113 112 111 109 109 107 102 98 97 100 102 100 97 94 90 85 81 76 70 65 60 55 51 48 45 43 40 38 36 35 35 34 33 32 31 30 29 29 29 30 30 30 32 31 31 32 34 35
125 124 122 123 123 124 124 124 123 122 120 119 118 118 118 118 117 116 115 111 108 107 106 109 108 105 108 105 99 101 104 108 113 113 113 115 115 117 118 113 108 107 106 104 102 100 101 103 103 99 95 91 85 81 75 68 63 58 54 51 48 46 43 40 37 36 35 35 34 33 32 31 30 29 28 28 28 29 30 31 31 31 31 32 34
130 128 125 125 125 125 126 125 125 123 121 121 120 120 120 118 117 118 115 113 114 111 106 107 108 107 108 104 102 107 108 110 114 114 114 117 116 120 123 117 109 106 104 104 105 103 101 103 104 101 97 92 86 81 74 67 62 57 54 52 50 46 42 39 37 36 35 35 35 34 33 31 30 28 27 27 27 28 29 30 31 33 33 33 33
135 132 129 129 128 129 129 128 127 125 124 124 122 122 122 120 119 119 116 114 114 112 109 109 110 111 107 101 104 112 113 113 117 117 118 120 120 121 124 121 112 106 105 106 108 106 102 103 105 103 99 94 88 82 74 67 61 57 55 53 50 46 42 39 37 36 35 34 34 34 33 31 30 28 28 28 28 29 30 31 32 34 35 34 34
139 138 135 134 132 132 132 131 130 128 127 127 125 123 124 123 121 118 115 113 111 110 111 109 109 111 109 104 105 110 115 118 123 126 124 122 124 124 124 122 113 105 106 108 111 111 105 101 103 103 101 96 90 84 75 67 61 57 54 51 47 44 40 37 35 34 33 33 33 32 31 31 30 29 29 29 30 31 32 34 35 37 37 37 36
144 142 141 139 137 136 136 136 135 131 129 128 127 127 126 125 123 119 116 114 111 112 113 109 107 110 111 107 104 107 116 124 128 131 129 124 125 127 124 123 114 106 107 109 111 112 106 100 100 102 101 99 93 85 76 68 61 57 53 49 45 41 38 36 34 33 32 32 32 32 31 32 32 32 32 32 32 33 34 35 37 38 38 38 38
149 147 146 145 142 142 141 141 139 135 132 130 130 129 127 127 126 124 121 116 113 115 116 109 107 112 110 106 108 109 115 126 131 133 134 130 128 128 126 125 118 110 110 110 109 109 106 101 100 102 102 99 94 86 77 68 61 56 52 47 43 40 38 35 34 33 33 33 33 33 33 34 35 35 34 34 34 34 35 35 37 38 38 38 38
153 151 151 148 146 146 144 142 142 139 134 132 133 132 130 130 129 127 124 116 113 118 117 110 110 112 108 106 108 108 111 121 126 128 132 135 133 129 127 126 121 115 116 115 110 109 108 105 102 101 103 100 92 83 75 67 60 56 50 46 42 39 37 36 35 35 35 35 34 34 34 34 35 36 36 35 34 34 35 35 36 37 38 38 38
154 154 153 150 149 149 146 144 144 142 138 136 136 135 134 132 130 128 125 119 117 119 117 115 119 116 110 109 107 107 113 119 122 122 124 133 137 132 128 127 122 120 123 120 116 112 109 107 104 101 99 96 89 81 74 66 59 53 49 45 41 38 37 37 37 37 36 36 35 34 34 33 34 36 36 35 34 33 34 36 36 37 38 38 39
155 155 153 152 152 152 149 147 146 143 141 141 139 139 138 135 132 130 128 126 125 125 123 122 124 121 117 115 111 113 117 117 121 122 119 124 131 132 132 130 123 122 126 126 121 117 112 108 106 103 96 92 90 84 75 66 57 51 48 45 42 39 38 38 38 38 37 36 35 33 33 32 31 33 35 35 34 34 35 36 37 37 38 38 39
156 156 155 155 155 154 152 150 149 146 143 143 144 143 142 138 136 135 134 134 130 129 130 125 124 123 119 114 114 121 122 120 122 124 122 121 126 133 137 135 127 123 126 130 127 120 117 113 111 107 98 94 92 82 74 68 60 54 49 46 44 41 39 38 38 38 37 36 34 33 31 31 30 31 33 35 35 35 36 36 36 36 38 39 39
158 157 155 157 157 156 155 154 152 150 147 145 145 145 144 142 142 141 140 140 136 133 130 127 125 124 118 113 116 121 122 127 129 127 127 126 126 133 138 137 132 128 130 133 128 119 119 119 114 111 103 97 91 81 75 73 65 55 49 46 45 41 38 36 36 36 36 35 34 33 31 30 30 30 31 34 36 36 37 36 36 36 37 38 39
160 158 157 159 160 159 159 158 156 154 152 150 148 149 150 147 146 146 145 144 143 140 136 133 128 125 125 121 118 116 117 128 132 128 129 128 125 129 135 135 130 130 135 135 123 113 117 121 118 117 109 95 88 82 77 72 64 53 46 46 44 40 37 34 34 34 33 34 34 33 31 30 29 29 30 33 35 36 36 36 36 36 36 37 39
160 160 160 161 162 163 163 161 161 159 156 155 154 155 156 152 151 151 149 149 150 146 143 140 134 129 131 129 123 118 118 125 127 126 129 129 126 127 131 134 129 124 129 133 124 112 113 117 118 119 112 96 86 80 73 66 59 49 43 43 41 38 34 32 32 33 31 32 33 32 31 30 29 29 30 33 35 35 36 35 36 36 37 37 38
162 162 163 163 165 167 166 165 166 164 160 158 158 158 160 159 158 156 154 154 153 151 150 149 142 134 135 136 132 126 123 126 126 128 132 130 129 132 133 139 141 135 134 135 131 121 115 115 118 118 111 96 84 73 68 61 52 45 41 40 38 34 31 29 31 32 30 30 30 30 30 29 29 29 30 33 34 34 34 34 35 36 37 37 37
166 164 165 166 166 167 166 166 166 165 164 163 162 162 165 166 164 162 159 157 155 155 156 157 150 141 141 142 138 134 131 131 134 137 142 141 138 139 139 141 147 151 149 143 139 134 127 124 124 120 109 93 79 66 63 57 49 43 38 36 34 30 27 26 27 29 28 27 27 27 28 28 29 30 32 33 33 33 33 33 34 34 35 35 35
170 168 167 167 166 166 165 166 166 165 164 164 164 162 164 168 168 167 165 163 162 161 161 164 162 151 149 149 146 146 142 139 147 151 154 155 150 148 147 143 144 151 154 151 150 146 140 140 137 127 116 95 75 61 57 57 47 36 32 31 27 25 23 22 23 24 24 23 23 23 25 27 29 31 32 32 31 31 31 31 32 33 33 33 32
174 173 170 168 169 167 166 169 169 167 166 165 165 163 164 166 168 170 171 171 171 169 169 172 172 163 159 159 158 159 156 145 149 158 162 163 157 155 157 151 147 151 159 166 166 160 157 164 166 143 129 101 62 50 51 55 40 24 22 21 18 18 18 17 17 18 18 19 18 19 21 23 27 30 30 29 28 28 28 29 31 31 31 31 31
179 179 175 172 173 172 170 173 173 170 170 170 168 167 168 165 164 168 170 172 176 176 178 179 178 174 172 171 170 175 175 153 136 151 165 165 160 157 161 165 163 163 175 182 179 176 175 181 190 176 146 94 42 27 36 45 24 8 7 7 7 7 8 9 9 10 13 15 14 14 16 18 22 26 27 26 25 24 24 26 28 29 29 29 29
184 184 182 180 180 178 175 177 177 175 175 175 173 172 172 166 164 167 167 169 175 180 182 182 181 181 183 182 178 184 189 169 140 142 156 164 172 174 171 176 178 178 187 191 189 190 181 183 201 211 193 77 350 334 347 357 352 349 350 354 357 356 356 359 0 2 5 9 10 11 11 12 15 18 20 20 20 20 20 21 23 25 26 27 27
189 189 187 186 187 185 182 182 180 178 179 179 177 175 175 171 170 171 169 169 174 180 184 185 183 184 188 189 186 189 194 188 169 158 156 163 179 185 185 187 186 185 190 196 203 206 190 181 209 228 260 266 276 310 319 318 320 327 336 345 348 347 347 350 351 353 357 0 4 5 6 7 7 9 11 12 13 14 15 16 18 20 22 24 25
194 194 192 190 189 188 187 188 185 182 183 182 180 179 178 177 177 177 176 173 174 180 185 186 186 187 189 190 191 195 202 201 194 186 181 182 190 195 199 201 198 195 194 196 207 215 210 199 210 230 262 265 278 301 303 302 305 314 326 336 339 337 338 341 341 343 348 352 355 358 360 1 1 2 2 3 5 7 9 11 13 15 17 19 21
197 198 197 195 193 190 190 191 190 187 187 186 184 184 183 183 182 181 180 178 177 180 185 187 188 190 192 193 195 201 206 208 207 203 201 205 210 209 208 209 208 207 209 209 213 220 223 229 240 244 257 274 284 291 293 297 303 308 315 324 327 326 328 332 332 334 339 344 347 350 352 354 356 356 357 357 359 1 4 6 8 10 12 14 16
200 201 201 199 197 194 194 195 194 192 192 191 191 190 189 189 189 186 185 184 183 183 185 188 188 189 195 198 201 205 207 211 214 212 209 214 222 217 210 212 214 215 219 223 225 232 236 241 249 253 261 277 280 279 288 296 299 302 308 314 318 318 320 322 322 324 330 334 337 340 343 346 349 350 351 352 353 356 359 2 4 6 8 9 10
203 204 205 204 203 201 199 199 199 196 196 197 197 197 196 196 196 193 192 191 191 190 189 192 193 193 201 206 210 215 215 218 221 219 216 217 224 222 215 216 222 225 226 228 233 241 246 248 252 258 265 274 277 278 287 291 292 295 301 307 310 311 314 316 315 318 322 325 328 331 333 336 339 342 344 345 347 350 353 356 0 3 5 6 7
206 206 206 206 208 207 204 205 204 203 201 201 202 204 203 204 203 202 202 201 200 200 199 202 203 203 209 215 219 224 225 226 228 227 225 223 224 228 227 225 229 232 232 234 236 240 247 252 255 260 264 269 273 276 282 284 286 291 297 302 304 304 308 311 312 315 317 320 322 324 326 328 330 333 335 338 340 343 346 348 352 356 360 1 2
210 210 209 209 211 211 210 210 210 210 209 208 208 209 210 211 211 212 214 212 210 210 210 212 214 213 215 220 223 225 227 231 232 232 233 230 227 233 240 239 238 240 241 240 240 243 248 255 258 260 263 267 269 272 276 280 285 289 294 299 301 301 303 306 309 313 314 316 319 321 323 324 325 327 328 330 332 334 337 340 342 347 351 354 356
214 214 214 213 214 215 215 214 214 215 215 215 214 215 216 216 216 217 220 220 219 219 219 219 221 221 223 226 227 226 228 232 234 235 237 235 231 233 241 245 245 246 245 244 246 247 249 255 260 261 264 267 269 272 276 280 285 288 292 297 300 302 302 302 306 310 311 312 316 318 320 322 323 323 323 324 326 327 329 331 334 338 342 346 348
216 217 217 217 217 218 219 219 219 218 220 221 220 221 222 221 221 221 222 225 225 225 225 226 226 226 228 231 232 231 231 233 235 236 238 240 239 237 238 242 245 247 246 244 246 247 248 254 262 265 266 268 271 274 277 281 285 288 291 295 299 302 303 302 304 306 307 309 312 315 317 318 319 319 319 319 320 321 322 324 327 330 335 339 343
219 219 220 221 221 222 222 223 223 223 223 224 225 225 225 226 226 226 225 227 230 231 231 231 230 230 232 235 236 237 236 236 237 238 240 244 246 244 241 241 244 247 247 247 248 250 253 257 263 267 269 270 273 276 278 281 284 287 291 295 299 302 303 304 304 305 304 305 308 310 312 314 314 314 315 315 315 316 317 319 321 324 328 333 337
222 222 222 223 224 225 226 227 227 227 226 227 229 229 229 230 230 231 231 231 233 235 236 237 236 236 237 238 240 241 241 241 242 243 244 247 249 249 248 247 248 249 251 253 254 256 259 261 263 266 268 271 274 276 279 282 284 286 289 293 296 299 301 302 303 303 304 305 306 307 307 309 309 310 310 311 311 312 313 315 317 319 322 327 332
225 225 224 225 227 228 229 230 230 231 231 231 232 233 234 234 233 234 235 236 236 238 239 240 241 241 241 242 243 243 244 245 246 247 247 249 251 252 253 252 252 253 255 256 257 258 260 262 263 266 269 271 274 276 280 284 285 286 288 289 291 294 297 298 298 300 303 306 309 309 307 306 306 306 307 309 310 310 310 311 313 314 315 319 326
225 227 227 227 228 230 232 233 234 234 235 236 236 236 237 238 237 238 238 239 239 240 241 243 244 244 245 246 246 247 247 248 249 250 251 251 253 255 256 256 255 256 257 258 259 259 260 262 264 267 269 271 273 277 280 282 283 284 286 287 288 291 294 293 293 296 300 305 309 311 310 307 307 306 306 308 309 308 307 307 308 308 308 310 316
224 226 227 228 229 230 232 234 236 237 238 239 239 239 239 240 241 241 241 242 242 242 244 245 246 247 248 250 251 250 250 251 252 254 255 255 256 257 257 258 258 259 259 260 261 261 262 263 265 267 269 271 273 275 277 280 282 283 284 285 287 290 291 289 290 293 298 302 306 309 309 307 307 308 307 308 308 306 304 304 303 303 302 303 306
225 225 226 228 230 232 232 233 235 237 239 241 241 241 242 242 243 244 244 244 245 245 246 247 248 249 250 251 253 253 254 254 254 255 256 257 258 259 259 260 260 261 262 262 263 263 264 264 266 267 269 271 273 275 277 280 281 282 282 283 284 287 288 287 289 292 295 299 303 306 306 304 304 306 308 309 308 305 302 300 297 296 296 297 299
229 228 228 229 232 234 235 235 236 237 239 241 242 243 243 243 244 245 246 246 246 247 248 248 249 251 251 252 253 254 255 256 256 257 257 257 258 259 260 261 261 263 263 263 264 265 265 266 267 268 269 271 273 275 276 279 280 281 282 281 282 283 285 285 287 291 295 299 301 303 304 302 300 301 305 306 305 302 300 298 295 292 290 292 294
232 232 231 232 234 236 238 238 239 239 241 242 243 243 244 244 244 245 247 248 248 249 249 250 251 252 252 253 254 255 256 257 258 259 259 260 260 260 260 261 262 264 264 264 265 265 266 267 267 268 269 270 272 274 275 277 278 279 279 280 280 281 282 283 286 290 295 297 298 299 301 301 299 298 300 302 300 298 297 295 293 290 287 287 289
236 235 235 236 237 239 240 241 241 242 243 244 245 245 246 246 246 246 247 248 249 250 251 252 253 253 254 254 255 256 257 258 259 259 260 261 261 262 262 262 262 263 264 265 265 266 266 266 267 268 269 269 271 273 275 275 275 276 277 279 280 280 281 283 286 290 293 294 295 296 296 297 297 295 296 297 295 294 293 292 290 287 284 284 286
239 240 239 240 240 241 242 243 244 245 246 248 249 249 249 249 249 249 248 248 249 250 251 253 254 255 255 256 257 257 258 259 259 260 260 261 261 262 263 263 263 264 264 264 265 266 267 268 268 268 269 270 270 272 273 273 274 275 276 277 278 280 282 283 286 288 290 290 291 291 291 293 293 292 292 293 292 291 290 288 287 285 281 280 282
241 241 242 243 243 243 244 245 246 247 248 250 251 251 252 254 255 254 253 252 251 251 252 253 254 255 256 257 257 258 258 259 259 260 260 260 260 261 262 263 264 265 265 265 265 265 267 268 269 270 270 270 269 270 271 272 272 274 275 277 278 280 281 282 284 286 288 289 289 288 289 290 291 289 289 289 288 288 288 286 284 282 278 277 278
243 243 244 245 245 246 247 247 248 249 249 250 251 252 254 256 257 258 258 257 256 255 255 254 254 255 255 256 257 257 258 259 259 259 260 260 260 260 261 262 263 264 266 267 266 265 265 266 268 269 270 270 270 270 270 271 272 273 273 275 277 278 279 280 282 284 286 288 288 287 286 288 289 288 287 287 285 284 285 285 283 280 277 275 275
244 245 245 246 247 248 248 248 249 250 251 251 252 253 255 256 257 258 258 258 258 258 258 257 256 256 255 255 256 257 258 259 260 260 261 261 261 261 261 262 262 263 264 266 267 267 266 266 266 268 269 270 270 270 270 270 271 271 271 272 275 277 277 278 280 283 285 287 286 285 284 285 287 287 287 287 285 282 281 281 281 279 276 274 274
247 245 245 247 248 249 249 249 250 252 252 253 253 253 254 256 258 258 258 258 258 259 258 258 258 257 257 256 256 256 257 258 260 261 262 262 262 262 262 262 262 262 264 265 266 267 267 267 267 267 268 268 269 269 269 268 268 269 269 271 274 275 275 276 279 281 283 285 285 283 282 284 285 285 285 286 285 283 280 278 277 276 275 274 274